CZ-6A DEB, 60857

Orbit data source: Space-Track

CZ-6A DEB, 60857 is space debris in LEO originally from a launch on Tue, 06 Aug 2024 UTC launched from the Taiyaun Space Center, China (TSC). Debris objects in space refer to the collection of defunct objects orbiting the Earth. Examples of debris include non-operational satellites, rocket bodies, and fragments generated from explosions, collisions, or faulty payload assembly.

Loading next visibility...
Identifier
60857, 2024-140JL
Orbit
LEO
Country
Flag of CNCN / PRC
Related business
Manufacturer
SAST
Mission
Spacecraft
Bus & Motor
Unknown
Mass
Unknown
Launch date (UTC)
2024-08-06 (2 years ago)
Launch vehicle
Unknown
Launch site
Taiyaun Space Center, China (TSC)
Object type
Payload
Rocket body
Debris
Shape & HBR
Unknown shape, 0.1 m
Radar Cross Section
Medium (>0.1 m² and <1 m²)

Expand to show TLE details & history
Last TLE update: 13 hours ago

TLE from 13 hours ago
0 CZ-6A DEB
1 60857U 24140JL  26171.32836535  .00000498  00000-0  13821-3 0  9998
2 60857  88.9717 268.7863 0058562 268.3771  91.0724 14.44072286 97195
Epoch: 2026-06-20T07:52Z
TLE epoch observation values (Epoch: 2026-06-20T07:52:50.766Z)
Latitude
-0.00001°
Longitude
-117.96979°
Altitude
749.188 km
Speed
7.479 km/s
True Right ascension
17h 55m 08s
True Declination
0° 00' 00"
Sunlit
Object was in full shadow at epoch
Visualization orbit readout
Latitude
Unknown
Longitude
Unknown
Altitude
Unknown
Speed
Unknown
Apparent Right ascension
Unknown
Apparent Declination
Unknown
Sunlit
N/A
Visualization observer readout
Local Sidereal Time
07:22:52
Azimuth
Unknown
Elevation
Unknown
Doppler factor
Unknown
Orbital elements
Apogee altitude
783.689 km
Perigee altitude
700.295 km
Semi-major axis
7,120.129 km
Eccentricity
0.00586
Inclination
88.9717°
RAAN
268.7863°
Arg. of periapsis
268.3771°
True anomaly
91.74325°
Mean anomaly
91.0724°
Eccentric anomaly
91.40783°
Mean motion
3.61253 °/min
Orbital period
99.65 mins
BSTAR
0.00013821
Loading maneuver chart data...
Computing Atmospheric mass density...
Loading historical data...
Loading historical data...
Loading historical data...
Loading historical data...
Loading historical data...
Loading historical data...
Loading historical data...

Documentation

Showing up to 5 results
|